ALPHASAT

Last updated on Thu Nov 21 2024 00:02:42 GMT+0000 (Coordinated Universal Time)

1 39215U 13038A 24324.65697948 .00000135 00000+0 00000+0 0 9991 2 39215 2.9096 6.1306 0002370 230.6115 83.8050 1.00274416 38251
UTC large
Height (km)
Speed (km/s)
/
Latitude / Longitude
Inclination (degrees)
Orbital Period (minutes)
Azimuth
Elevation
Range (km)
Doppler Factor

Next 0 passes for location: London (51.5072 / 0.1276)

Sorry there are no passes over London.